JZR801 OKKK-OEJN

Flight info

Callsign JZR801
Flight time 2h 6m
Altitude 36000
Route DEKOB P517 KSB B417 GAS G674 PMA B544 RBG/N0466F370 B544 NOMDA
Aircraft A320/M-SDE3FGHIRWY/LB1

Departure

Time 2026-04-29 00:12
Airport Kuwait International Airport (OKKK)

Arrival

Time 2026-04-29 02:19
Airport King Abdulaziz International Airport (OEJN)
Time Latitude Longitude Altitude Speed Heading
2026-04-28 23:35 29.23744 47.97327 167 ft 0 kts 277°
2026-04-28 23:59 29.23744 47.97330 167 ft 3 kts 277°
2026-04-28 23:59 29.23741 47.97360 167 ft 2 kts 274°
2026-04-29 00:00 29.23741 47.97385 167 ft 4 kts 259°
2026-04-29 00:00 29.23750 47.97410 167 ft 4 kts 221°
2026-04-29 00:00 29.23772 47.97422 167 ft 4 kts 175°
2026-04-29 00:00 29.23787 47.97418 167 ft 0 kts 154°
2026-04-29 00:02 29.23781 47.97421 167 ft 2 kts 154°
2026-04-29 00:02 29.23766 47.97430 167 ft 3 kts 155°
2026-04-29 00:03 29.23741 47.97443 167 ft 5 kts 155°
2026-04-29 00:03 29.23708 47.97456 167 ft 6 kts 165°
2026-04-29 00:03 29.23667 47.97452 167 ft 7 kts 209°
2026-04-29 00:03 29.23639 47.97409 167 ft 6 kts 246°
2026-04-29 00:04 29.23623 47.97366 167 ft 6 kts 246°
2026-04-29 00:04 29.23608 47.97329 167 ft 5 kts 246°
2026-04-29 00:04 29.23596 47.97297 167 ft 5 kts 246°
2026-04-29 00:04 29.23577 47.97246 167 ft 10 kts 247°
2026-04-29 00:05 29.23545 47.97170 167 ft 11 kts 244°
2026-04-29 00:05 29.23510 47.97083 166 ft 13 kts 245°
2026-04-29 00:05 29.23496 47.96978 166 ft 15 kts 278°
2026-04-29 00:05 29.23513 47.96854 164 ft 17 kts 278°
2026-04-29 00:06 29.23523 47.96723 163 ft 15 kts 253°
2026-04-29 00:06 29.23442 47.96727 163 ft 13 kts 156°
2026-04-29 00:06 29.23362 47.96768 164 ft 13 kts 156°
2026-04-29 00:06 29.23279 47.96812 164 ft 15 kts 155°
2026-04-29 00:07 29.23168 47.96865 165 ft 19 kts 154°
2026-04-29 00:07 29.23036 47.96941 168 ft 23 kts 155°
2026-04-29 00:07 29.22881 47.97019 167 ft 25 kts 154°
2026-04-29 00:07 29.22723 47.97107 167 ft 25 kts 155°
2026-04-29 00:08 29.22565 47.97192 167 ft 24 kts 155°
2026-04-29 00:08 29.22418 47.97270 167 ft 22 kts 155°
2026-04-29 00:08 29.22281 47.97343 167 ft 21 kts 155°
2026-04-29 00:08 29.22156 47.97412 167 ft 19 kts 156°
2026-04-29 00:09 29.22037 47.97472 166 ft 18 kts 155°
2026-04-29 00:09 29.21931 47.97526 166 ft 16 kts 151°
2026-04-29 00:09 29.21839 47.97577 166 ft 14 kts 155°
2026-04-29 00:09 29.21727 47.97637 167 ft 21 kts 154°
2026-04-29 00:10 29.21578 47.97717 168 ft 24 kts 155°
2026-04-29 00:10 29.21434 47.97794 169 ft 22 kts 155°
2026-04-29 00:10 29.21314 47.97856 170 ft 12 kts 156°
2026-04-29 00:10 29.21253 47.97823 170 ft 10 kts 244°
2026-04-29 00:11 29.21241 47.97754 170 ft 8 kts 283°
2026-04-29 00:11 29.21270 47.97697 170 ft 9 kts 303°
2026-04-29 00:11 29.21387 47.97568 169 ft 19 kts 335°
2026-04-29 00:12 29.21670 47.97419 167 ft 77 kts 335°
2026-04-29 00:12 29.22335 47.97065 165 ft 132 kts 335°
2026-04-29 00:12 29.23304 47.96571 305 ft 163 kts 339°
2026-04-29 00:12 29.24328 47.96043 989 ft 162 kts 335°
2026-04-29 00:13 29.25411 47.95455 1367 ft 181 kts 333°
2026-04-29 00:13 29.26565 47.94832 1912 ft 187 kts 333°
2026-04-29 00:13 29.27757 47.94196 2600 ft 189 kts 331°
2026-04-29 00:13 29.28967 47.93542 3143 ft 198 kts 328°
2026-04-29 00:14 29.30006 47.92438 3408 ft 216 kts 297°
2026-04-29 00:14 29.30298 47.90693 3705 ft 239 kts 261°
2026-04-29 00:14 29.29488 47.88989 4231 ft 256 kts 223°
2026-04-29 00:14 29.27862 47.88108 5046 ft 264 kts 195°
2026-04-29 00:15 29.26032 47.87861 5909 ft 266 kts 186°
2026-04-29 00:15 29.24176 47.87851 6752 ft 267 kts 183°
2026-04-29 00:15 29.22311 47.87898 7513 ft 269 kts 183°
2026-04-29 00:15 29.20430 47.87933 8270 ft 271 kts 185°
2026-04-29 00:16 29.18532 47.87932 9015 ft 274 kts 186°
2026-04-29 00:16 29.16636 47.87895 9750 ft 277 kts 187°
2026-04-29 00:16 29.14669 47.87833 10321 ft 286 kts 187°
2026-04-29 00:16 29.12623 47.87747 10494 ft 309 kts 187°
2026-04-29 00:17 29.10399 47.87645 10628 ft 332 kts 187°
2026-04-29 00:17 29.08014 47.87534 10771 ft 352 kts 186°
2026-04-29 00:17 29.05527 47.87424 11184 ft 361 kts 186°
2026-04-29 00:17 29.02992 47.87317 11767 ft 366 kts 186°
2026-04-29 00:18 29.00435 47.87209 12374 ft 369 kts 186°
2026-04-29 00:18 28.97884 47.87103 13006 ft 372 kts 186°
2026-04-29 00:18 28.95248 47.86992 13597 ft 376 kts 186°
2026-04-29 00:18 28.92656 47.86884 14131 ft 380 kts 186°
2026-04-29 00:19 28.90002 47.86773 14665 ft 383 kts 186°
2026-04-29 00:19 28.87329 47.86660 15212 ft 386 kts 186°
2026-04-29 00:19 28.84633 47.86544 15755 ft 389 kts 186°
2026-04-29 00:19 28.81918 47.86424 16299 ft 392 kts 186°
2026-04-29 00:20 28.79175 47.86301 16845 ft 395 kts 187°
2026-04-29 00:20 28.76418 47.86178 17377 ft 398 kts 187°
2026-04-29 00:20 28.73636 47.86055 17893 ft 402 kts 187°
2026-04-29 00:20 28.70829 47.85936 18373 ft 405 kts 186°
2026-04-29 00:21 28.68006 47.85820 18803 ft 407 kts 187°
2026-04-29 00:21 28.65162 47.85706 19266 ft 409 kts 187°
2026-04-29 00:21 28.62306 47.85587 19714 ft 411 kts 187°
2026-04-29 00:21 28.59440 47.85465 20137 ft 413 kts 187°
2026-04-29 00:22 28.56579 47.85211 20553 ft 411 kts 194°
2026-04-29 00:22 28.53835 47.84388 20972 ft 406 kts 205°
2026-04-29 00:22 28.51309 47.82996 21365 ft 403 kts 215°
2026-04-29 00:22 28.49080 47.81098 21750 ft 401 kts 225°
2026-04-29 00:23 28.47101 47.78872 22127 ft 401 kts 227°
2026-04-29 00:23 28.45124 47.76621 22514 ft 403 kts 227°
2026-04-29 00:23 28.43142 47.74374 22894 ft 404 kts 227°
2026-04-29 00:23 28.41149 47.72119 23265 ft 405 kts 227°
2026-04-29 00:24 28.39144 47.69852 23599 ft 407 kts 227°
2026-04-29 00:24 28.37133 47.67577 23905 ft 408 kts 227°
2026-04-29 00:24 28.35125 47.65304 24205 ft 408 kts 227°
2026-04-29 00:24 28.33110 47.63023 24509 ft 409 kts 227°
2026-04-29 00:25 28.31096 47.60747 24803 ft 410 kts 227°
2026-04-29 00:25 28.29071 47.58461 25084 ft 410 kts 227°
2026-04-29 00:25 28.27046 47.56173 25353 ft 411 kts 227°
2026-04-29 00:25 28.25020 47.53881 25616 ft 412 kts 227°
2026-04-29 00:26 28.23015 47.51570 25869 ft 411 kts 230°
2026-04-29 00:26 28.21327 47.48958 26110 ft 410 kts 240°
2026-04-29 00:26 28.20108 47.46033 26340 ft 411 kts 250°
2026-04-29 00:26 28.19390 47.42890 26571 ft 414 kts 257°
2026-04-29 00:27 28.18882 47.39680 26845 ft 413 kts 257°
2026-04-29 00:27 28.18369 47.36486 27168 ft 411 kts 257°
2026-04-29 00:27 28.17853 47.33310 27480 ft 409 kts 257°
2026-04-29 00:27 28.17336 47.30146 27819 ft 407 kts 257°
2026-04-29 00:28 28.16822 47.26998 28157 ft 405 kts 257°
2026-04-29 00:28 28.16313 47.23869 28503 ft 403 kts 257°
2026-04-29 00:28 28.15807 47.20752 28844 ft 401 kts 257°
2026-04-29 00:28 28.15302 47.17656 29190 ft 399 kts 257°
2026-04-29 00:29 28.14798 47.14574 29542 ft 397 kts 257°
2026-04-29 00:29 28.14292 47.11494 29886 ft 396 kts 257°
2026-04-29 00:29 28.13790 47.08439 30187 ft 394 kts 257°
2026-04-29 00:29 28.13289 47.05402 30477 ft 391 kts 257°
2026-04-29 00:30 28.12790 47.02380 30779 ft 389 kts 257°
2026-04-29 00:30 28.12460 47.00391 30979 ft 387 kts 257°
2026-04-29 00:30 28.11967 46.97412 31277 ft 384 kts 257°
2026-04-29 00:30 28.11475 46.94441 31553 ft 382 kts 257°
2026-04-29 00:31 28.10984 46.91483 31831 ft 380 kts 257°
2026-04-29 00:31 28.10500 46.88550 32113 ft 378 kts 257°
2026-04-29 00:31 28.10022 46.85640 32394 ft 375 kts 257°
2026-04-29 00:31 28.09545 46.82742 32672 ft 373 kts 257°
2026-04-29 00:32 28.09070 46.79862 32940 ft 371 kts 257°
2026-04-29 00:32 28.08597 46.76996 33213 ft 369 kts 257°
2026-04-29 00:32 28.08126 46.74149 33485 ft 367 kts 257°
2026-04-29 00:32 28.07656 46.71321 33758 ft 364 kts 258°
2026-04-29 00:33 28.07187 46.68509 34015 ft 362 kts 258°
2026-04-29 00:33 28.06720 46.65712 34214 ft 361 kts 258°
2026-04-29 00:33 28.06254 46.62917 34389 ft 361 kts 257°
2026-04-29 00:33 28.05788 46.60129 34568 ft 361 kts 257°
2026-04-29 00:34 28.05322 46.57341 34731 ft 360 kts 257°
2026-04-29 00:34 28.04854 46.54561 34901 ft 359 kts 257°
2026-04-29 00:34 28.04386 46.51785 35059 ft 359 kts 257°
2026-04-29 00:34 28.03920 46.49014 35208 ft 359 kts 257°
2026-04-29 00:35 28.03455 46.46240 35348 ft 359 kts 257°
2026-04-29 00:35 28.02989 46.43469 35482 ft 358 kts 257°
2026-04-29 00:35 28.02525 46.40699 35626 ft 358 kts 257°
2026-04-29 00:35 28.02062 46.37933 35773 ft 358 kts 257°
2026-04-29 00:36 28.01595 46.35164 35884 ft 358 kts 257°
2026-04-29 00:36 28.00651 46.29600 35923 ft 362 kts 257°
2026-04-29 00:37 27.99697 46.23994 35926 ft 363 kts 257°
2026-04-29 00:37 27.98744 46.18384 35925 ft 363 kts 257°
2026-04-29 00:38 27.97798 46.12768 35927 ft 363 kts 257°
2026-04-29 00:38 27.96860 46.07164 35932 ft 363 kts 257°
2026-04-29 00:39 27.95916 46.01556 35933 ft 363 kts 257°
2026-04-29 00:39 27.94963 45.95941 35925 ft 364 kts 257°
2026-04-29 00:40 27.94007 45.90318 35928 ft 364 kts 257°
2026-04-29 00:40 27.93053 45.84705 35936 ft 364 kts 257°
2026-04-29 00:41 27.92094 45.79075 35935 ft 364 kts 257°
2026-04-29 00:41 27.91136 45.73457 35950 ft 364 kts 257°
2026-04-29 00:42 27.90176 45.67842 35948 ft 364 kts 257°
2026-04-29 00:42 27.89209 45.62222 35949 ft 364 kts 257°
2026-04-29 00:43 27.87918 45.56713 35937 ft 363 kts 245°
2026-04-29 00:43 27.84816 45.52179 35934 ft 373 kts 229°
2026-04-29 00:44 27.80991 45.48226 35936 ft 373 kts 229°
2026-04-29 00:44 27.77168 45.44261 35938 ft 374 kts 229°
2026-04-29 00:45 27.73338 45.40282 35937 ft 374 kts 229°
2026-04-29 00:45 27.69508 45.36309 35944 ft 374 kts 229°
2026-04-29 00:46 27.65677 45.32340 35946 ft 374 kts 229°
2026-04-29 00:46 27.61841 45.28370 35947 ft 374 kts 229°
2026-04-29 00:47 27.58004 45.24397 35954 ft 375 kts 229°
2026-04-29 00:47 27.54209 45.20373 35959 ft 373 kts 231°
2026-04-29 00:48 27.50606 45.16166 35946 ft 373 kts 232°
2026-04-29 00:48 27.47070 45.11956 35939 ft 373 kts 232°
2026-04-29 00:49 27.43463 45.07732 35933 ft 374 kts 231°
2026-04-29 00:49 27.39827 45.03518 35941 ft 375 kts 231°
2026-04-29 00:50 27.36182 44.99312 35933 ft 376 kts 231°
2026-04-29 00:50 27.32538 44.95090 35931 ft 376 kts 231°
2026-04-29 00:51 27.28890 44.90870 35946 ft 377 kts 231°
2026-04-29 00:51 27.25230 44.86640 35950 ft 377 kts 231°
2026-04-29 00:52 27.21573 44.82420 35952 ft 377 kts 231°
2026-04-29 00:52 27.17919 44.78214 35954 ft 377 kts 231°
2026-04-29 00:53 27.14258 44.73997 35956 ft 376 kts 231°
2026-04-29 00:53 27.10599 44.69789 35954 ft 376 kts 231°
2026-04-29 00:54 27.06942 44.65588 35928 ft 377 kts 231°
2026-04-29 00:54 27.03268 44.61377 35948 ft 378 kts 231°
2026-04-29 00:55 26.99591 44.57164 35951 ft 378 kts 231°
2026-04-29 00:55 26.95918 44.52950 35953 ft 378 kts 231°
2026-04-29 00:56 26.92232 44.48735 35933 ft 379 kts 231°
2026-04-29 00:56 26.88544 44.44511 35939 ft 380 kts 231°
2026-04-29 00:57 26.84840 44.40283 35957 ft 380 kts 231°
2026-04-29 00:57 26.81130 44.36054 35960 ft 381 kts 231°
2026-04-29 00:58 26.77415 44.31828 35936 ft 381 kts 231°
2026-04-29 00:58 26.73692 44.27599 35946 ft 382 kts 231°
2026-04-29 00:59 26.69970 44.23365 35951 ft 382 kts 231°
2026-04-29 00:59 26.66235 44.19124 35975 ft 382 kts 231°
2026-04-29 01:00 26.62507 44.14889 35945 ft 383 kts 231°
2026-04-29 01:00 26.58773 44.10659 35952 ft 383 kts 231°
2026-04-29 01:01 26.55035 44.06426 35960 ft 383 kts 231°
2026-04-29 01:01 26.51287 44.02187 35971 ft 383 kts 231°
2026-04-29 01:02 26.47568 43.97981 35950 ft 383 kts 231°
2026-04-29 01:02 26.43812 43.93743 35950 ft 384 kts 231°
2026-04-29 01:03 26.40060 43.89512 35952 ft 384 kts 231°
2026-04-29 01:03 26.36295 43.85270 35955 ft 385 kts 231°
2026-04-29 01:04 26.32521 43.81023 35945 ft 385 kts 230°
2026-04-29 01:04 26.29201 43.76433 35948 ft 378 kts 245°
2026-04-29 01:05 26.27011 43.71120 35956 ft 377 kts 247°
2026-04-29 01:05 26.24825 43.65799 35959 ft 378 kts 247°
2026-04-29 01:06 26.22632 43.60479 35994 ft 378 kts 247°
2026-04-29 01:06 26.20445 43.55168 35974 ft 378 kts 247°
2026-04-29 01:07 26.18251 43.49844 35973 ft 378 kts 247°
2026-04-29 01:07 26.16061 43.44524 35972 ft 378 kts 247°
2026-04-29 01:08 26.13858 43.39190 35982 ft 379 kts 247°
2026-04-29 01:08 26.11656 43.33871 35987 ft 379 kts 246°
2026-04-29 01:09 26.09447 43.28545 35962 ft 379 kts 246°
2026-04-29 01:09 26.07239 43.23217 35969 ft 379 kts 246°
2026-04-29 01:10 26.05034 43.17894 35983 ft 380 kts 246°
2026-04-29 01:10 26.02816 43.12557 35982 ft 380 kts 246°
2026-04-29 01:11 26.00597 43.07227 35983 ft 380 kts 246°
2026-04-29 01:11 25.98380 43.01908 35996 ft 379 kts 246°
2026-04-29 01:12 25.96161 42.96583 35957 ft 380 kts 246°
2026-04-29 01:12 25.94300 42.92121 35961 ft 380 kts 246°
2026-04-29 01:13 25.92064 42.86781 35959 ft 381 kts 246°
2026-04-29 01:13 25.89833 42.81453 35964 ft 381 kts 246°
2026-04-29 01:14 25.87593 42.76116 35964 ft 381 kts 246°
2026-04-29 01:14 25.85356 42.70788 35966 ft 381 kts 246°
2026-04-29 01:15 25.83113 42.65451 35968 ft 381 kts 246°
2026-04-29 01:15 25.80872 42.60117 35990 ft 381 kts 246°
2026-04-29 01:16 25.78634 42.54796 35984 ft 380 kts 246°
2026-04-29 01:16 25.76389 42.49481 35982 ft 380 kts 246°
2026-04-29 01:17 25.74147 42.44181 35980 ft 380 kts 246°
2026-04-29 01:17 25.71904 42.38863 35962 ft 380 kts 246°
2026-04-29 01:18 25.69654 42.33543 35969 ft 381 kts 246°
2026-04-29 01:18 25.66266 42.25568 35966 ft 382 kts 246°
2026-04-29 01:19 25.64004 42.20242 35967 ft 382 kts 246°
2026-04-29 01:19 25.61742 42.14922 35980 ft 382 kts 246°
2026-04-29 01:20 25.59473 42.09595 35964 ft 382 kts 246°
2026-04-29 01:20 25.57204 42.04281 35958 ft 382 kts 246°
2026-04-29 01:21 25.54933 41.98953 35960 ft 383 kts 246°
2026-04-29 01:21 25.53794 41.96297 35982 ft 383 kts 246°
2026-04-29 01:22 25.48080 41.82962 35950 ft 383 kts 246°
2026-04-29 01:23 25.45792 41.77635 35951 ft 384 kts 246°
2026-04-29 01:23 25.43481 41.72261 35977 ft 384 kts 246°
2026-04-29 01:24 25.41203 41.66962 35983 ft 384 kts 246°
2026-04-29 01:24 25.38917 41.61646 35984 ft 384 kts 246°
2026-04-29 01:25 25.36611 41.56302 35981 ft 384 kts 246°
2026-04-29 01:25 25.34313 41.50981 35965 ft 384 kts 246°
2026-04-29 01:26 25.31998 41.45614 35968 ft 384 kts 246°
2026-04-29 01:26 25.29709 41.40321 35970 ft 384 kts 246°
2026-04-29 01:27 25.27398 41.34995 35969 ft 384 kts 246°
2026-04-29 01:27 25.25089 41.29669 35986 ft 384 kts 246°
2026-04-29 01:28 25.22785 41.24354 35958 ft 384 kts 246°
2026-04-29 01:28 25.20471 41.19033 35957 ft 384 kts 246°
2026-04-29 01:29 25.18154 41.13714 35957 ft 385 kts 246°
2026-04-29 01:29 25.15835 41.08396 35974 ft 384 kts 246°
2026-04-29 01:30 25.13513 41.03077 35973 ft 384 kts 246°
2026-04-29 01:30 25.11189 40.97772 35970 ft 384 kts 246°
2026-04-29 01:31 25.08862 40.92469 35939 ft 384 kts 246°
2026-04-29 01:31 25.06543 40.87157 35957 ft 384 kts 246°
2026-04-29 01:32 25.04219 40.81852 35954 ft 385 kts 246°
2026-04-29 01:32 25.01884 40.76546 35955 ft 385 kts 246°
2026-04-29 01:33 24.99550 40.71241 35952 ft 385 kts 246°
2026-04-29 01:33 24.97212 40.65935 35952 ft 385 kts 246°
2026-04-29 01:34 24.94881 40.60634 35921 ft 385 kts 246°
2026-04-29 01:34 24.92534 40.55314 35926 ft 386 kts 246°
2026-04-29 01:35 24.90191 40.50008 35927 ft 386 kts 246°
2026-04-29 01:35 24.87828 40.44673 35957 ft 387 kts 246°
2026-04-29 01:36 24.85472 40.39349 35952 ft 387 kts 246°
2026-04-29 01:36 24.83115 40.34023 35952 ft 387 kts 246°
2026-04-29 01:37 24.80756 40.28696 35933 ft 387 kts 245°
2026-04-29 01:37 24.78382 40.23365 35948 ft 388 kts 246°
2026-04-29 01:38 24.76007 40.18041 35948 ft 388 kts 246°
2026-04-29 01:38 24.73634 40.12707 35954 ft 388 kts 246°
2026-04-29 01:39 24.71254 40.07384 35949 ft 388 kts 245°
2026-04-29 01:39 24.68876 40.02059 35960 ft 388 kts 246°
2026-04-29 01:40 24.66501 39.96730 35934 ft 388 kts 246°
2026-04-29 01:40 24.64112 39.91397 35943 ft 389 kts 245°
2026-04-29 01:41 24.61713 39.86059 35936 ft 389 kts 245°
2026-04-29 01:41 24.59323 39.80734 35975 ft 389 kts 245°
2026-04-29 01:42 24.56921 39.75401 35985 ft 389 kts 244°
2026-04-29 01:42 24.55416 39.72918 35981 ft 393 kts 233°
2026-04-29 01:42 24.53420 39.70832 35990 ft 401 kts 222°
2026-04-29 01:43 24.51000 39.69269 35981 ft 411 kts 210°
2026-04-29 01:43 24.48255 39.68223 35979 ft 418 kts 206°
2026-04-29 01:43 24.42709 39.66298 35969 ft 419 kts 206°
2026-04-29 01:44 24.37158 39.64365 35971 ft 419 kts 206°
2026-04-29 01:44 24.31599 39.62418 35940 ft 419 kts 206°
2026-04-29 01:45 24.26077 39.60475 35937 ft 419 kts 206°
2026-04-29 01:45 24.20516 39.58528 35934 ft 419 kts 205°
2026-04-29 01:46 24.14955 39.56584 35937 ft 420 kts 205°
2026-04-29 01:46 24.09388 39.54642 35932 ft 420 kts 205°
2026-04-29 01:47 24.03815 39.52698 35938 ft 421 kts 205°
2026-04-29 01:47 23.98232 39.50753 35948 ft 421 kts 205°
2026-04-29 01:48 23.92645 39.48806 35952 ft 421 kts 205°
2026-04-29 01:48 23.87056 39.46858 35932 ft 422 kts 205°
2026-04-29 01:49 23.81455 39.44913 35934 ft 422 kts 205°
2026-04-29 01:49 23.76763 39.43287 35947 ft 423 kts 205°
2026-04-29 01:50 23.71144 39.41343 35957 ft 423 kts 205°
2026-04-29 01:50 23.65568 39.39423 35943 ft 422 kts 205°
2026-04-29 01:51 23.59960 39.37488 35928 ft 424 kts 205°
2026-04-29 01:51 23.54320 39.35537 35934 ft 425 kts 205°
2026-04-29 01:52 23.48684 39.33588 35941 ft 425 kts 205°
2026-04-29 01:52 23.43046 39.31645 35942 ft 425 kts 205°
2026-04-29 01:53 23.37396 39.29692 35916 ft 426 kts 204°
2026-04-29 01:53 23.31750 39.27741 35918 ft 426 kts 204°
2026-04-29 01:54 23.26100 39.25796 35927 ft 426 kts 204°
2026-04-29 01:54 23.20438 39.23850 35924 ft 426 kts 204°
2026-04-29 01:55 23.14784 39.21911 35904 ft 427 kts 204°
2026-04-29 01:55 23.09114 39.19961 35899 ft 427 kts 204°
2026-04-29 01:56 23.03433 39.18007 35910 ft 427 kts 204°
2026-04-29 01:56 22.97765 39.16062 35124 ft 429 kts 204°
2026-04-29 01:57 22.94891 39.15073 34090 ft 435 kts 204°
2026-04-29 01:57 22.92001 39.14082 33032 ft 439 kts 204°
2026-04-29 01:57 22.89067 39.13079 31926 ft 443 kts 204°
2026-04-29 01:57 22.86106 39.12070 30810 ft 448 kts 204°
2026-04-29 01:58 22.83128 39.11055 29501 ft 448 kts 204°
2026-04-29 01:58 22.80136 39.10172 27501 ft 456 kts 197°
2026-04-29 01:58 22.76950 39.09780 25548 ft 467 kts 187°
2026-04-29 01:58 22.73668 39.09835 23911 ft 469 kts 184°
2026-04-29 01:59 22.70439 39.09929 23239 ft 457 kts 184°
2026-04-29 01:59 22.67334 39.10033 23107 ft 437 kts 184°
2026-04-29 01:59 22.64359 39.10143 22970 ft 420 kts 184°
2026-04-29 01:59 22.61492 39.10252 22837 ft 404 kts 184°
2026-04-29 02:00 22.58748 39.10355 22702 ft 389 kts 184°
2026-04-29 02:00 22.56076 39.10446 22570 ft 376 kts 185°
2026-04-29 02:00 22.53501 39.10525 22441 ft 363 kts 185°
2026-04-29 02:00 22.51022 39.10600 22263 ft 352 kts 185°
2026-04-29 02:01 22.48604 39.10645 22008 ft 344 kts 186°
2026-04-29 02:01 22.46231 39.10657 21739 ft 339 kts 187°
2026-04-29 02:01 22.43878 39.10651 21490 ft 337 kts 187°
2026-04-29 02:01 22.41536 39.10644 21199 ft 335 kts 187°
2026-04-29 02:02 22.39213 39.10642 20764 ft 334 kts 186°
2026-04-29 02:02 22.36889 39.10644 20344 ft 332 kts 186°
2026-04-29 02:02 22.34618 39.10651 20016 ft 329 kts 186°
2026-04-29 02:02 22.32329 39.10660 19587 ft 329 kts 186°
2026-04-29 02:03 22.30032 39.10673 19259 ft 324 kts 186°
2026-04-29 02:03 22.27797 39.10686 18871 ft 323 kts 186°
2026-04-29 02:03 22.25568 39.10701 18552 ft 320 kts 186°
2026-04-29 02:03 22.23317 39.10713 18201 ft 317 kts 185°
2026-04-29 02:04 22.21147 39.10725 17802 ft 315 kts 185°
2026-04-29 02:04 22.18959 39.10735 17393 ft 314 kts 185°
2026-04-29 02:04 22.16773 39.10747 16983 ft 313 kts 185°
2026-04-29 02:04 22.14586 39.10762 16392 ft 309 kts 185°
2026-04-29 02:05 22.12443 39.10773 15694 ft 307 kts 184°
2026-04-29 02:05 22.10321 39.10824 15221 ft 312 kts 178°
2026-04-29 02:05 22.08192 39.11327 14807 ft 318 kts 166°
2026-04-29 02:05 22.06109 39.12139 14506 ft 316 kts 165°
2026-04-29 02:06 22.04057 39.12955 14196 ft 313 kts 165°
2026-04-29 02:06 22.02016 39.13770 13864 ft 312 kts 164°
2026-04-29 02:06 21.99986 39.14578 13510 ft 310 kts 164°
2026-04-29 02:06 21.97969 39.15380 13137 ft 309 kts 164°
2026-04-29 02:07 21.95957 39.16178 12765 ft 307 kts 164°
2026-04-29 02:07 21.93959 39.16970 12390 ft 306 kts 164°
2026-04-29 02:07 21.91993 39.17749 12034 ft 304 kts 164°
2026-04-29 02:07 21.89991 39.18545 11667 ft 303 kts 164°
2026-04-29 02:08 21.88016 39.19328 11145 ft 306 kts 164°
2026-04-29 02:08 21.85970 39.20130 10363 ft 319 kts 163°
2026-04-29 02:08 21.83847 39.20960 9544 ft 327 kts 163°
2026-04-29 02:08 21.81743 39.21789 9120 ft 311 kts 163°
2026-04-29 02:09 21.79793 39.22563 8880 ft 289 kts 163°
2026-04-29 02:09 21.77979 39.23284 8729 ft 267 kts 163°
2026-04-29 02:09 21.76294 39.23951 8575 ft 248 kts 164°
2026-04-29 02:09 21.74705 39.24575 8196 ft 239 kts 164°
2026-04-29 02:10 21.73152 39.25182 7700 ft 237 kts 164°
2026-04-29 02:10 21.71606 39.25786 7193 ft 235 kts 163°
2026-04-29 02:10 21.70074 39.26387 6707 ft 234 kts 163°
2026-04-29 02:10 21.68547 39.26985 6201 ft 233 kts 163°
2026-04-29 02:11 21.67028 39.27583 5702 ft 231 kts 162°
2026-04-29 02:11 21.65544 39.28169 5284 ft 226 kts 162°
2026-04-29 02:11 21.64075 39.28749 4991 ft 225 kts 162°
2026-04-29 02:11 21.62587 39.29335 4867 ft 229 kts 162°
2026-04-29 02:12 21.61082 39.29925 4586 ft 230 kts 162°
2026-04-29 02:12 21.59572 39.30516 4256 ft 232 kts 161°
2026-04-29 02:12 21.58050 39.31113 3918 ft 234 kts 160°
2026-04-29 02:12 21.56519 39.31710 3573 ft 236 kts 161°
2026-04-29 02:13 21.54894 39.31901 3219 ft 235 kts 193°
2026-04-29 02:13 21.53448 39.31192 2910 ft 226 kts 227°
2026-04-29 02:13 21.52562 39.29866 2755 ft 216 kts 255°
2026-04-29 02:13 21.52048 39.28371 2572 ft 209 kts 261°
2026-04-29 02:14 21.51860 39.26900 2404 ft 193 kts 279°
2026-04-29 02:14 21.52089 39.25542 2265 ft 179 kts 297°
2026-04-29 02:14 21.52642 39.24389 2180 ft 171 kts 312°
2026-04-29 02:14 21.53444 39.23485 2138 ft 166 kts 327°
2026-04-29 02:15 21.54433 39.22864 2136 ft 162 kts 340°
2026-04-29 02:15 21.55454 39.22459 2174 ft 152 kts 341°
2026-04-29 02:15 21.56428 39.22077 2070 ft 147 kts 341°
2026-04-29 02:15 21.57389 39.21699 1907 ft 147 kts 341°
2026-04-29 02:16 21.58350 39.21322 1733 ft 147 kts 342°
2026-04-29 02:16 21.59312 39.20943 1551 ft 148 kts 342°
2026-04-29 02:16 21.60279 39.20562 1354 ft 148 kts 342°
2026-04-29 02:16 21.61210 39.20195 1173 ft 138 kts 342°
2026-04-29 02:17 21.62116 39.19838 990 ft 137 kts 342°
2026-04-29 02:17 21.63000 39.19486 832 ft 135 kts 340°
2026-04-29 02:17 21.63891 39.19130 640 ft 136 kts 341°
2026-04-29 02:17 21.64768 39.18778 447 ft 138 kts 338°
2026-04-29 02:18 21.65653 39.18435 282 ft 137 kts 340°
2026-04-29 02:18 21.66487 39.18110 123 ft 134 kts 339°
2026-04-29 02:18 21.67117 39.17870 48 ft 129 kts 340°
2026-04-29 02:18 21.67869 39.17571 35 ft 98 kts 340°
2026-04-29 02:19 21.68370 39.17372 26 ft 53 kts 340°
2026-04-29 02:19 21.68576 39.17290 27 ft 21 kts 340°
2026-04-29 02:19 21.68714 39.17229 30 ft 22 kts 330°
2026-04-29 02:19 21.68837 39.17133 28 ft 21 kts 311°
2026-04-29 02:20 21.68862 39.17103 29 ft 3 kts 311°
2026-04-29 02:20 21.68874 39.17088 30 ft 4 kts 311°
2026-04-29 02:20 21.68903 39.17052 30 ft 9 kts 311°
2026-04-29 02:20 21.68954 39.16982 30 ft 14 kts 298°
2026-04-29 02:21 21.68902 39.16929 30 ft 14 kts 179°
2026-04-29 02:21 21.68803 39.16964 31 ft 17 kts 160°
2026-04-29 02:21 21.68665 39.17014 28 ft 24 kts 161°
2026-04-29 02:21 21.68523 39.17073 27 ft 15 kts 160°
2026-04-29 02:22 21.68435 39.17108 27 ft 13 kts 160°
2026-04-29 02:22 21.68356 39.17140 27 ft 12 kts 160°
2026-04-29 02:22 21.68283 39.17168 27 ft 10 kts 160°
2026-04-29 02:22 21.68223 39.17191 29 ft 8 kts 160°
2026-04-29 02:23 21.68185 39.17206 30 ft 4 kts 160°
2026-04-29 02:23 21.68166 39.17213 30 ft 1 kts 159°
2026-04-29 02:23 21.68159 39.17217 31 ft 5 kts 159°
2026-04-29 02:23 21.68077 39.17250 31 ft 16 kts 160°
2026-04-29 02:24 21.67988 39.17223 30 ft 13 kts 210°
2026-04-29 02:24 21.67909 39.17216 30 ft 11 kts 159°
2026-04-29 02:24 21.67841 39.17242 30 ft 10 kts 160°
2026-04-29 02:25 21.67726 39.17287 30 ft 8 kts 160°
2026-04-29 02:25 21.67680 39.17305 30 ft 7 kts 159°
2026-04-29 02:25 21.67639 39.17322 30 ft 6 kts 160°
2026-04-29 02:25 21.67605 39.17335 30 ft 5 kts 160°
2026-04-29 02:26 21.67574 39.17348 30 ft 4 kts 160°
2026-04-29 02:26 21.67549 39.17358 30 ft 3 kts 160°
2026-04-29 02:26 21.67528 39.17366 30 ft 3 kts 160°
2026-04-29 02:26 21.67513 39.17372 30 ft 2 kts 160°
2026-04-29 02:27 21.67503 39.17376 30 ft 2 kts 160°
2026-04-29 02:27 21.67476 39.17386 30 ft 6 kts 160°
2026-04-29 02:27 21.67434 39.17403 30 ft 8 kts 160°
2026-04-29 02:27 21.67373 39.17426 30 ft 12 kts 160°
2026-04-29 02:28 21.67292 39.17457 30 ft 16 kts 160°
2026-04-29 02:28 21.67216 39.17462 30 ft 16 kts 225°
2026-04-29 02:28 21.67201 39.17428 30 ft 17 kts 245°
2026-04-29 02:28 21.67213 39.17394 30 ft 9 kts 330°
2026-04-29 02:29 21.67244 39.17356 30 ft 10 kts 301°
2026-04-29 02:29 21.67276 39.17329 30 ft 0 kts 310°